sat.trackr.live / text

‹ back to catalog

STARLINK-1807

NORAD 46706 · 2020-073AN

PAYLOAD ACTIVE UNKNOWN

§ Identity

Operator
Country
US
Launch date
2020-10-18
Launch site
AFETR
Launch vehicle
Mass (kg)
RCS (m²)

Purposes: comms

External: N2YO · Heavens-Above · Gunter

§ Orbital elements

Epoch: 2026-05-24T23:16:12.767808Z

Period
94.14 min
Inclination
53.0589°
Eccentricity
0.0003325
Mean motion
15.29669704 rev/d
Perigee alt
474.5 km
Apogee alt
479.1 km
Semi-major
6,854.9 km
B*
1.1819e-3
RAAN
235.0217°
Arg perigee
5.0603°
Mean anomaly
355.0429°
Rev number
30,897

§ Raw data

STARLINK-18071 46706U 20073AN  26144.96959222  .00034243  00000+0  11819-2 0  99932 46706  53.0589 235.0217 0003325   5.0603 355.0429 15.29669704308976

JSON: /api/v1/satellites/46706 · /tle

For live sub-satellite position, see the globe view (requires WebGL).

§ Visibility from observer

Set your observer location to see the next 7 days of passes ≥ 10°. The values pass through the URL so the page stays shareable.

No JS? Fill the form by hand. The geolocation button needs JavaScript.